Hourly Data Report for November 13, 2019

All times are specified in Local Standard Time (LST). Add 1 hour to adjust for Daylight Saving Time where and when it is observed.

SEPT-ILES
QUEBEC
Current Station Operator: ECCC - MSC

50°13'00.000" N
66°15'00.000" W
52.60 m
7047914
71279
XZV

Download Data

Hourly Data (November 2019)
Hourly Data Report for November 13, 2019
TIME Temp Definition
°C
Dew Point Definition
°C
Rel Hum Definition
%
Wind Dir Definition
10's deg

Wind Spd Definition
km/h
Visibility Definition
km
Stn Press Definition
kPa
Hmdx Definition


Wind Chill Definition


Weather Definition


00:00 -7.2 -9.4 84 36 16   99.24   -14 LegendNANA
01:00 -7.2 -9.7 82 35 16   99.23   -14 LegendNANA
02:00 -7.3 -9.9 82 36 17   99.16   -14 LegendNANA
03:00 -7.4 -10.5 78 36 17   99.11   -14 LegendNANA
04:00 -7.3 -11.1 75 36 18   99.10   -14 LegendNANA
05:00 -7.5 -11.2 75 36 15   99.07   -14 LegendNANA
06:00 -7.3 -11.3 73 35 15   99.10   -13 LegendNANA
07:00 -7.2 -11.3 72 34 18   99.18   -14 LegendNANA
08:00 -7.0 -12.0 67 34 22   99.28   -14 LegendNANA
09:00 -7.6 -13.1 64 33 29   99.37   -16 LegendNANA
10:00 -7.2 -13.7 60 33 24   99.47   -15 LegendNANA
11:00 -6.5 -12.8 61 32 20   99.56   -13 LegendNANA
12:00 -6.0 -12.2 62 32 21   99.60   -13 LegendNANA
13:00 -5.7 -12.5 59 33 24   99.71   -13 LegendNANA
14:00 -5.7 -13.0 56 33 20   99.83   -12 LegendNANA
15:00 -5.9 -13.7 54 32 26   100.01   -14 LegendNANA
16:00 -6.4 -13.7 56 32 22   100.18   -14 LegendNANA
17:00 -6.3 -14.4 52 32 21   100.33   -13 LegendNANA
18:00 -6.3 -14.1 54 31 19   100.47   -13 LegendNANA
19:00 -6.2 -14.4 52 31 16   100.63   -12 LegendNANA
20:00 -6.6 -14.1 55 30 15   100.77   -13 LegendNANA
21:00 -6.9 -14.3 56 31 15   100.95   -13 LegendNANA
22:00 -7.5 -14.1 59 31 13   101.06   -13 LegendNANA
23:00 -8.0 -14.4 60 31 8   101.24   -12 LegendNANA

Notes on Data Quality.

Legend

  • E = Estimated
  • M = Missing
  • NA = Not Available
Date modified: